Find Starlink 35557

NORAD ID: 66237 Int'l Des: 2025-245 Owner: SPXS Country: US Constellation: starlink operational
LEOCIRCULAR

实时位置

正在加载3D地球...

关于 Starlink 35557

正在加载描述...

即将过境

Passes for default location (London). Set your location on the main map for personalized predictions.

高度历史

Loading altitude history...

两行轨道根数

1 66237U 25245D 26107.15496442 .00006947 00000-0 24646-3 0 9994
2 66237 53.1570 105.3770 0001457 69.8044 290.3113 15.30199761 27143
Epoch: Apr 17, 2026 • Age: 11 hours

当前状态

高度 494.5 km
速度 7.62 km/s
星下点 -52.70°S, 58.43°W
发射日期 Oct 29, 2025
运行时间 0.4 years
类型 internet

技术详情

分类 Payload
质量 575.00 kg
干质量 530.00 kg
总质量 575.00 kg
长度 0.30 m
直径 4.10 m
跨度 29.00 m
形状 Box + pan
制造商 SPXS
平台类型 Starlink V2MO
阶段状态 In Orbit
所有者/国家 SPXS/US

Most Searched